Regional Weather Roundup
Issued by NWS

Home | Current Version | Previous Version | Graphics & Text | Print | Product List | Glossary Off
Versions: 1 2 3 4 5 6 7 8 9 10 11 12 13 14 15 16 17 18 19 20 21 22 23 24 25 26 27 28 29 30 31 32 33 34 35 36 37 38 39 40 41 42 43 44 45 46 47 48 49 50

000
ASUS45 KABQ 241710
RWRNM
NEW MEXICO REGIONAL WEATHER ROUNDUP
NATIONAL WEATHER SERVICE ALBUQUERQUE NM
1100 AM MDT SUN MAY 24 2015

NOTE: "FAIR" MEANS FEW OR NO CLOUDS BELOW 12,000 FEET AGL WITH NO
       SIGNIFICANT WEATHER OR OBSTRUCTIONS TO VISION.

      THIS PRODUCT IS RELEASED AS TWO VERSIONS.  ONE VERSION NEAR
      THE TOP OF THE HOUR CONTAINING PRELIMINARY DATA FROM ALBUQUERQUE
      AND OTHER STATIONS.  A FINAL VERSION WITH ADDITIONAL DATA IS
      ISSUED ABOUT 10 MINUTES AFTER THE HOUR.

NMZ501-503-504-510>518-241800-
NORTHWEST PLATEAU/NORTHCENTRAL MOUNTAINS

CITY           SKY/WX    TMP DP  RH WIND       PRES   REMARKS
FARMINGTON     CLOUDY    51  43  74 W6        29.99S
LOS ALAMOS     CLOUDY    50  35  57 S6        30.02F
SANTA FE       MOSUNNY   58  34  40 SW16G22   29.99F
TAOS           CLOUDY    48  34  57 NW7       30.02F
ANGEL FIRE     FAIR      46  33  60 W13       30.02F

$$
NMZ402-403-502-505>509-241800-
WESTCENTRAL MOUNTAINS/SOUTHWEST MOUNTAINS

CITY           SKY/WX    TMP DP  RH WIND       PRES   REMARKS
GALLUP         CLOUDY    52  34  50 SW13      30.04R
GRANTS         CLOUDY    59  32  35 NW10G16   30.03S
SILVER CITY      N/A     64  25  22 W12G22    30.05F

$$
NMZ407-409-411-412-241800-
SOUTHERN DESERTS

CITY           SKY/WX    TMP DP  RH WIND       PRES   REMARKS
LORDSBURG      FAIR      68  30  24 W8G16     30.00F
DEMING         SUNNY     70  29  21 W16G23    30.00F
LAS CRUCES     SUNNY     69  28  21 W9G21     30.02S
HOLLOMAN AFB   SUNNY     72  25  17 SW12G21   29.96S
ALAMOGORDO     SUNNY     72  25  17 S9        29.97F
T OR C         SUNNY     66  27  23 VRB6      29.98F

$$
NMZ519>523-241800-
CENTRAL VALLEYS/CENTRAL HIGHLANDS

CITY           SKY/WX    TMP DP  RH WIND       PRES   REMARKS
ALBUQUERQUE    MOSUNNY   61  35  37 SW5       29.99F
DOUBLE EAGLE   MOSUNNY   57  37  47 VRB7      30.01F
MORIARTY ARPT  PTSUNNY   60  31  33 W12G17    30.01F
CLINES CORNERS NOT AVBL
BELEN          FAIR      65  32  29 S7        29.99F
SOCORRO        FAIR      64  31  29 CALM      29.98F

$$
NMZ524>526-539-540-241800-
SOUTHCENTRAL MOUNTAINS

CITY           SKY/WX    TMP DP  RH WIND       PRES   REMARKS
RUIDOSO        SUNNY     61  28  29 N6        30.05S

$$
NMZ527>531-241800-
NORTHEAST HIGHLANDS/NORTHEAST PLAINS

CITY           SKY/WX    TMP DP  RH WIND       PRES   REMARKS
LAS VEGAS      PTSUNNY   60  34  37 SW17      29.96R
RATON          MOSUNNY   62  35  36 S13G23    29.90S
CLAYTON        SUNNY     68  49  50 E6        29.88S

$$
NMZ532>537-241800-
EASTCENTRAL PLAINS

CITY           SKY/WX    TMP DP  RH WIND       PRES   REMARKS
TUCUMCARI      SUNNY     69  43  38 VRB5      29.86F
CANNON AFB     SUNNY     70  43  37 NW10      29.88
CLOVIS AIRPORT SUNNY     70  46  43 N3        29.88R

$$
NMZ028-029-538-241800-
SOUTHEAST PLAINS

CITY           SKY/WX    TMP DP  RH WIND       PRES   REMARKS
ROSWELL        SUNNY     76  31  19 CALM      29.89F
ARTESIA        SUNNY     79  23  12 SW14G23   29.90F
CARLSBAD       SUNNY     79  29  16 W18G26    29.90R
HOBBS          SUNNY     73  41  31 SW13      29.93R


$$


USA.gov is the U.S. government's official web portal to all federal, state and local government web resources and services.